Location: Bothwell
(41.7170°N, 112.2589°W)
Time: 12:08:08
(UTC+00:00)

Transit 2A Rocket - All Passes

Search period start: 13 May 2026 00:00
Search period end: 23 May 2026 00:00
Orbit: 587 x 895 km, 66.7° (Epoch: 13 May)

Date Brightness Start Highest point End Pass type
(mag) Time Alt. Az. Time Alt. Az. Time Alt. Az.
13 May - 02:22:07 10° S 02:27:41 51° ESE 02:32:53 10° NE daylight
13 May - 04:05:31 10° WSW 04:10:16 27° NW 04:14:44 10° N visible
13 May - 11:05:09 10° NNW 11:09:22 35° NE 11:13:21 10° ESE visible
13 May - 12:47:55 10° WNW 12:51:26 23° WSW 12:54:50 10° SSW daylight
14 May - 01:37:16 10° SSE 01:42:07 29° ESE 01:46:42 10° NE daylight
14 May - 03:18:53 10° SW 03:24:18 45° NW 03:29:23 10° NNE visible
14 May - 10:19:55 10° N 10:23:21 20° NE 10:26:37 10° E visible
14 May - 12:01:38 10° NW 12:05:57 47° WSW 12:10:04 10° S daylight
15 May - 00:53:23 10° SE 00:56:39 16° ESE 00:59:48 10° ENE daylight
15 May - 02:32:45 10° SW 02:38:30 78° WNW 02:43:49 10° NNE daylight
15 May - 04:18:31 10° WNW 04:21:37 15° NW 04:24:36 10° N visible
15 May - 09:35:15 10° NNE 09:37:09 12° NE 09:39:00 10° ENE visible
15 May - 11:15:46 10° NNW 11:20:19 83° ENE 11:24:37 10° SSE visible
16 May - 01:47:09 10° SSW 01:52:48 60° ESE 01:58:03 10° NE daylight
16 May - 03:31:02 10° W 03:35:29 24° NW 03:39:40 10° N visible
16 May - 10:30:11 10° NNW 10:34:31 41° NE 10:38:36 10° SE visible
16 May - 12:13:20 10° WNW 12:16:27 19° WSW 12:19:28 10° SSW daylight
17 May - 01:02:07 10° S 01:07:11 33° ESE 01:11:58 10° NE daylight
17 May - 02:44:14 10° WSW 02:49:30 38° NW 02:54:23 10° NNE daylight
17 May - 09:44:52 10° N 09:48:33 23° NE 09:52:03 10° E visible
17 May - 11:26:51 10° NW 11:31:00 38° WSW 11:34:58 10° S visible
18 May - 00:17:54 10° SSE 00:21:42 19° ESE 00:25:21 10° ENE daylight
18 May - 01:57:58 10° SW 02:03:39 66° WNW 02:08:53 10° NNE daylight
18 May - 03:44:24 10° WNW 03:46:54 13° NW 03:49:18 10° NNW visible
18 May - 09:00:00 10° N 09:02:24 14° NE 09:04:44 10° ENE visible
18 May - 10:40:53 10° NNW 10:45:24 81° WSW 10:49:41 10° SSE visible
19 May - 01:12:13 10° SSW 01:17:54 71° ESE 01:23:10 10° NE daylight
19 May - 02:56:37 10° W 03:00:42 21° NW 03:04:35 10° N daylight
19 May - 09:55:15 10° NNW 09:59:39 50° NE 10:03:49 10° SE visible
19 May - 11:38:50 10° WNW 11:41:27 15° WSW 11:43:58 10° SW daylight
20 May - 00:27:00 10° S 00:32:16 39° ESE 00:37:12 10° NE daylight
20 May - 02:09:39 10° WSW 02:14:41 33° NW 02:19:23 10° NNE daylight
20 May - 09:09:51 10° N 09:13:43 27° NE 09:17:25 10° ESE visible
20 May - 10:52:06 10° NW 10:56:01 31° WSW 10:59:48 10° S visible
20 May - 23:42:31 10° SSE 23:46:45 22° ESE 23:50:47 10° ENE daylight
21 May - 01:23:14 10° SW 01:28:48 56° WNW 01:33:56 10° NNE daylight
21 May - 03:10:30 10° NW 03:12:10 11° NW 03:13:48 10° NNW daylight
21 May - 08:24:48 10° N 08:27:38 16° NE 08:30:21 10° E visible
21 May - 10:06:02 10° NW 10:10:28 66° WSW 10:14:42 10° SSE visible
21 May - 22:59:40 10° ESE 23:01:20 11° ESE 23:02:59 10° E daylight
22 May - 00:37:20 10° SSW 00:43:01 83° ESE 00:48:17 10° NNE daylight
22 May - 02:22:15 10° W 02:25:56 18° NW 02:29:26 10° N daylight
22 May - 09:20:18 10° NNW 09:24:46 61° ENE 09:28:59 10° SE visible
22 May - 11:04:34 10° W 11:06:25 12° WSW 11:08:14 10° SW visible
